sat.trackr.live / text

‹ back to catalog

STARLINK-36309

NORAD 68325 · 2026-059E

PAYLOAD ACTIVE UNKNOWN

§ Identity

Operator
Country
US
Launch date
2026-03-22
Launch site
AFETR
Launch vehicle
Mass (kg)
RCS (m²)

Purposes: comms

External: N2YO · Heavens-Above · Gunter

§ Orbital elements

Epoch: 2026-09-19T07:36:31.413600Z

Period
93.85 min
Inclination
53.1604°
Eccentricity
0.0001416
Mean motion
15.34385939 rev/d
Perigee alt
461.8 km
Apogee alt
463.7 km
Semi-major
6,840.9 km
B*
1.3592e-4
RAAN
161.5708°
Arg perigee
75.0913°
Mean anomaly
285.0247°
Rev number
2,792

§ Raw data

STARLINK-363091 68325U 26059E   26262.31703025  .00004217  00000+0  13592-3 0  99912 68325  53.1604 161.5708 0001416  75.0913 285.0247 15.34385939 27928

JSON: /api/v1/satellites/68325 · /tle

For live sub-satellite position, see the globe view (requires WebGL).

§ Visibility from observer

Set your observer location to see the next 7 days of passes ≥ 10°. The values pass through the URL so the page stays shareable.

No JS? Fill the form by hand. The geolocation button needs JavaScript.